Weather History for Fort Leonard Wood, MO

Change the Weather History Date:

Saturday, April 21, 2012

  Actual Average Record
Temperature  
Mean Temperature 47 °F -  
Max Temperature 63 °F 66 °F 84 °F (1999)
Min Temperature 32 °F 49 °F 32 °F (2012)
Degree Days  
Heating Degree Days 18    
Moisture  
Dew Point 39 °F    
Average Humidity 75    
Maximum Humidity 99    
Minimum Humidity 41    
Precipitation  
Precipitation 0.00 in - - ()
Sea Level Pressure  
Sea Level Pressure 30.01 in    
Wind  
Wind Speed 4 mph (North)    
Max Wind Speed 10 mph    
Max Gust Speed -    
Visibility 10 miles    
Events      
Averages and records for this station are not official NWS values.
T = Trace of Precipitation, MM = Missing Value Source: NWS Daily Summary

Daily Weather History Graph

Daily Weather History Graph

Search for Another Location

Airport:

Trip Planner

Search our weather history database for the weather conditions in past years. The results will help you decide how hot, cold, wet, or windy it might be!

Date:

Astronomy

Apr. 21, 2012 Rise Set
Actual Time 6:24 AM CDT 7:50 PM CDT
Civil Twilight 5:57 AM CDT 8:17 PM CDT
Nautical Twilight 5:24 AM CDT 8:50 PM CDT
Astronomical Twilight 4:49 AM CDT 9:25 PM CDT
Moon 6:21 AM CDT (4/21) 8:30 PM CDT (4/21)
Length of Visible Light 14h 20m
Length of Day
13h 25m
New Moon, 0% of the Moon is Illuminated
Apr 21
New Moon
Apr 29
First Quarter
May 5
Full
May 12
Last Quarter
May 20
New

Hourly Weather History & Observations

Time (CDT) Temp. Windchill Dew Point Humidity Pressure Visibility Wind Dir Wind Speed Gust Speed Precip Events Conditions
12:55 AM 36.9 °F 34.3 °F 36.7 °F 99% 30.04 in 10.0 mi WNW 3.5 mph - N/A   Clear
1:55 AM 37.0 °F - 36.7 °F 99% 30.04 in 10.0 mi Calm Calm - N/A   Clear
2:55 AM 36.1 °F 32.3 °F 35.8 °F 99% 30.03 in 10.0 mi NW 4.6 mph - N/A   Clear
3:55 AM 35.8 °F - 35.4 °F 99% 30.02 in 10.0 mi Calm Calm - N/A   Clear
4:55 AM 34.7 °F - 34.5 °F 99% 30.03 in 10.0 mi Calm Calm - N/A   Clear
5:55 AM 34.2 °F - 33.8 °F 99% 30.03 in 8.0 mi Calm Calm - N/A   Clear
6:55 AM 32.9 °F - 32.7 °F 99% 30.03 in 7.0 mi Calm Calm - N/A   Clear
7:55 AM 39.0 °F 35.7 °F 38.8 °F 99% 30.05 in 10.0 mi NW 4.6 mph - N/A   Clear
8:55 AM 45.3 °F 40.6 °F 41.7 °F 87% 30.05 in 10.0 mi North 9.2 mph - N/A   Clear
9:38 AM 48.2 °F - 41.0 °F 76% 30.06 in 10.0 mi NNE 8.1 mph - N/A   Mostly Cloudy
9:52 AM 48.2 °F - 41.0 °F 76% 30.06 in 10.0 mi NNE 10.4 mph - N/A   Scattered Clouds
9:55 AM 48.0 °F - 39.9 °F 74% 30.05 in 10.0 mi North 10.4 mph - N/A   Scattered Clouds
10:55 AM 50.4 °F - 39.7 °F 67% 30.05 in 10.0 mi NNE 8.1 mph - N/A   Clear
11:55 AM 53.1 °F - 40.3 °F 62% 30.04 in 10.0 mi ENE 5.8 mph - N/A   Clear
12:55 PM 55.9 °F - 39.4 °F 54% 30.01 in 10.0 mi ENE 5.8 mph - N/A   Clear
1:55 PM 58.8 °F - 39.0 °F 48% 30.01 in 10.0 mi North 9.2 mph - N/A   Partly Cloudy
2:55 PM 59.7 °F - 38.1 °F 45% 29.99 in 10.0 mi Variable 3.5 mph - N/A   Clear
3:55 PM 61.5 °F - 39.7 °F 45% 29.97 in 10.0 mi WNW 3.5 mph - N/A   Clear
4:55 PM 62.2 °F - 37.9 °F 41% 29.97 in 10.0 mi North 8.1 mph - N/A   Mostly Cloudy
5:55 PM 61.5 °F - 40.5 °F 46% 29.97 in 10.0 mi NNW 8.1 mph - N/A   Clear
6:55 PM 59.9 °F - 39.2 °F 46% 29.98 in 10.0 mi NW 4.6 mph - N/A   Clear
7:55 PM 53.4 °F - 42.4 °F 66% 29.99 in 10.0 mi Calm Calm - N/A   Clear
8:55 PM 53.2 °F - 40.6 °F 62% 29.99 in 10.0 mi Calm Calm - N/A   Clear
9:55 PM 44.8 °F - 43.7 °F 96% 29.99 in 10.0 mi Calm Calm - N/A   Clear
10:55 PM 45.9 °F - 43.5 °F 92% 29.98 in 10.0 mi Calm Calm - N/A   Partly Cloudy
11:55 PM 48.6 °F - 44.2 °F 85% 29.96 in 10.0 mi South 3.5 mph - N/A   Overcast